Regional Weather Roundup
Issued by NWS Charleston, SC

Current Version | Previous Version | Graphics & Text | Print | Product List | Glossary On
Versions: 1 2 3 4 5 6 7 8 9 10 11 12 13 14 15 16 17 18 19 20 21 22 23 24 25 26 27 28 29 30 31 32 33 34 35 36 37 38 39 40 41 42 43 44 45 46 47 48
000
ASUS42 KCHS 220825
RWRCHS

REGIONAL WEATHER ROUNDUP
NATIONAL WEATHER SERVICE CHARLESTON SC
300 AM EST WED FEB 22 2017

NOTE: "FAIR" INDICATES FEW OR NO CLOUDS BELOW 12,000 FEET WITH NO
SIGNIFICANT WEATHER AND/OR OBSTRUCTIONS TO VISIBILITY.

NOT ALL STATIONS ARE QUALITY CONTROLLED. USE DATA WITH CAUTION...
ESPECIALLY DEWPOINT OBSERVATIONS.

SCZ027-030-031-034>040-042>050-220900-
...SOUTHEAST SOUTH CAROLINA...

CITY           SKY/WX    TMP DP  RH WIND       PRES   REMARKS
N CHARLESTON   MOCLDY    58  55  90 CALM      29.97F
WATERFRONT PRK   N/A     61  59  93 E7        29.97F
MOUNT PLEASANT FAIR      55  55 100 CALM      29.98S
JOHNS ISLAND   FAIR      57  57 100 CALM      29.97S
PINOPOLIS        N/A     61  57  88 VRB2      29.89F
MONCKS CORNER  FAIR      55  54  94 CALM      29.97F
SUMMERVILLE    FAIR      54  54 100 CALM      29.97F
BEAUFORT MCAS  MOCLDY    64  60  87 E6        29.95F
BEAUFORT ARPT  PTSUNNY   63  59  88 E3        29.94F
HILTON HEAD IS CLOUDY    63  61  94 VRB6      29.94F
WALTERBORO     MOSUNNY   55  54  94 E6        29.97F
ALLENDALE      FAIR      61  57  88 CALM      29.93F

...SOUTHERN MIDLANDS AND PEE DEE...

CITY           SKY/WX    TMP DP  RH WIND       PRES   REMARKS
GEORGETOWN     PTSUNNY   55  54  94 NE5       30.00F
KINGSTREE      FAIR      55  52  88 E3        29.98F
ORANGEBURG     CLOUDY    57  55  93 SE3       29.97F
BARNWELL       FAIR      61  59  94 CALM      29.95S
AIKEN          CLOUDY    59  55  88 E6        29.99S
MANNING        FAIR      54  46  76 MISG      29.98F
COLUMBIA       CLOUDY    59  54  83 E5        29.97F
SUMTER         MOCLDY    53  51  93 NE3       29.96F
FLORENCE       PTCLDY    53  52  96 E7        30.00F
MYRTLE BEACH   NOT AVBL
N MYRTLE BEACH MOCLDY    61  55  81 E8        30.01F

$$

GAZ063-065-086>088-099>101-113>116-118-119-134>141-150-220900-
...SOUTHEAST GEORGIA...

CITY           SKY/WX    TMP DP  RH WIND       PRES   REMARKS
SAVANNAH ARPT  CLOUDY    64  61  90 E6        29.93F
HUNTER AAF     MOCLDY    63  63 100 E5        29.90F
FORT STEWART   CLOUDY    62  60  94 CALM      29.89F
STATESBORO     MOCLDY    63  63 100 E5        29.92F
SYLVANIA       PTSUNNY  N/A N/A N/A SE6       29.94F
CLAXTON        FAIR     N/A N/A N/A CALM      29.92S HAZE

...CSRA...CENTRAL AND FAR SOUTHEAST GEORGIA...

CITY           SKY/WX    TMP DP  RH WIND       PRES   REMARKS
THOMSON        CLOUDY    63  63 100 E6        29.98S
AUGUSTA-BUSH   CLOUDY    62  61  96 CALM      29.94F
AUGUSTA-DANIEL CLOUDY    61  58  90 CALM      29.95F
SWAINSBORO     CLOUDY    63  63 100 E7        29.92F
VIDALIA        CLOUDY    63  63 100 E3        29.91S
EASTMAN        PTSUNNY   63  63 100 E3        29.90F
HAZLEHURST     FAIR      65  64  98 SE5       29.88S
ALMA           CLOUDY    66  61  84 SE6       29.88F
WAYCROSS       CLOUDY    68  67  96 SE8       29.87F
JESUP          CLOUDY    63  59  88 CALM      29.90F
BAXLEY         CLOUDY    64  64 100 CALM      29.88F
BRUNSWICK      CLOUDY    68  63  83 SE7       29.90F
SAINT SIMONS   CLOUDY    66  61  84 SE8       29.89F

$$

SCZ027-028-034-036>038-045-046-048>050-GAZ119-141-220900-
...LAKE AND SUPPLEMENTAL COASTAL OBSERVATIONS...

STATION/POSITION TIME  TEMP    WIND        PRES    WAVE   SWELL
                       AIR SEA DIR/SP/G            HT/PER HT/PER/DIR
                 (UTC) (F)     (DEG/KT/KT) (MB)    (FT/S) (FT/S/D)
WINYAH BAY       0730   59      50/  5     1016.0S
LAKE MURRAY      0750   59      80/  3/  5 1014.6F
ACE BASIN NERRS  0745   60      40/  2     1014.0F
FORT PULASKI     0800   66 61  120/  9/ 11 1013.6
SAPELO ISLAND    0800   65     140/  6     1013.0

$$

ANZ835-935-AMZ111-154-330-350-352-354-370-450-454-472-220900-
...C-MAN AND BUOY OBSERVATIONS...

STATION/POSITION TIME  TEMP    WIND        PRES    WAVE   SWELL
                       AIR SEA DIR/SP/G            HT/PER HT/PER/DIR
                 (UTC) (F)     (DEG/KT/KT) (MB)    (FT/S) (FT/S/D)
BUOY 41004       0750   69 69  120/ 17/ 19 1014.2F   4/ 5   2/ 70/ 8
BUOY 41008       0750   65 63  140/  6/  6 1012.5F   4/ 6   3/110/ 6
FOLLY BEACH CMAN 0800   61      50/  7/  8 1015.3F
CAPERS NEARSHORE 0708   60 59   30/  6/  8 1015.3F
FRIPP NEARSHORE  0808   64 60  110/ 12/ 14 1013.5F


STATION/POSITION TIME  TEMP    WIND        PRES    WAVE   SWELL
                       AIR SEA DIR/SP/G            HT/PER HT/PER/DIR
                 (UTC) (F)     (DEG/KT/KT) (MB)    (FT/S) (FT/S/D)
5E ST. MARYS GA  0800      64                N/A     4/ 6
FRYING PAN BUOY  0810   68 69  140/ 12/ 14 1016.3
BUOY 41025       0750   63 74  130/  6/  8 1018.6F   3/ 8   3/ 50/ 8
CAPE LOOKOUT NC  0800   62      80/  7/  7 1017.4F
BUOY 41002       0750   64 71  100/ 16/ 19 1016.8F   5/ 8   3/ 20/ 8
BUOY 41010       NOT AVBL
ST AUGUSTINE FL  0800   68 68  140/  9/  9 1012.2F


$$




USA.gov is the U.S. government's official web portal to all federal, state and local government web resources and services.